This demonstration page uses our WeatherBlox Daily Observations layout. Learn more.

Left ArrowRight Arrow

41.55636, -103.73856

Hourly Observations for May 6, 2020

Temp ( °F °C ) Dew Point ( °F °C ) Humidity (%) Winds ( mph kmh ) Pressure ( in mb ) Visibility ( mi km ) Precip ( " mm )
12:58 am 00:58 Mostly Cloudy 57 13.9 29 -1.8 34 34 NE 22 35 30.22 1023 10 16 N/A
1:58 am 01:58 Clear 50 10.1 28 -2 43 43 NE 13 20 30.26 1025 10 16 N/A
2:58 am 02:58 Clear 46 7.6 29 -1.4 53 53 ENE 10 17 30.30 1026 10 16 N/A
3:58 am 03:58 Clear 45 7.3 28 -2.1 52 52 NE 7 11 30.31 1026 10 16 N/A
4:58 am 04:58 Clear 43 6.2 28 -2 56 56 NE 10 17 30.34 1027 10 16 N/A
5:58 am 05:58 Clear 44 6.4 27 -2.6 53 53 NE 8 13 30.36 1028 10 16 N/A
6:58 am 06:58 Clear 37 3 29 -1.7 72 72 NE 10 17 30.37 1029 10 16 N/A
7:58 am 07:58 Clear 35 1.4 29 -1.6 81 81 S 3 6 30.39 1029 10 16 N/A
8:58 am 08:58 Clear 37 2.9 28 -2 71 71 N N/A 30.37 1028 10 16 N/A
9:58 am 09:58 Clear 33 0.4 30 -0.9 91 91 N N/A 30.38 1029 10 16 N/A
10:58 am 10:58 Clear 34 0.9 30 -1.2 86 86 SSW 6 9 30.35 1028 10 16 N/A
11:58 am 11:58 Sunny 34 1.2 29 -1.4 83 83 S 6 9 30.36 1028 10 16 N/A
12:58 pm 12:58 Sunny 39 4.1 33 0.4 77 77 N N/A 30.35 1028 10 16 N/A
1:58 pm 13:58 Sunny 45 7.3 33 0.3 61 61 S 3 6 30.33 1027 10 16 N/A
2:58 pm 14:58 Sunny 52 10.9 31 -0.4 46 46 SSW 15 24 30.32 1027 10 16 N/A
3:58 pm 15:58 Sunny 55 12.9 27 -2.8 34 34 SSW 8 13 30.29 1026 10 16 N/A
4:58 pm 16:58 Sunny 58 14.5 28 -2.5 31 31 SW 9 15 30.26 1025 10 16 N/A
5:58 pm 17:58 Sunny 62 16.4 27 -2.7 27 27 SSE 5 7 30.24 1024 10 16 N/A
6:58 pm 18:58 Sunny 64 17.6 30 -1.3 28 28 SSW 10 17 30.21 1023 10 16 N/A
7:58 pm 19:58 Sunny 66 18.7 33 0.4 29 29 SSW 10 17 30.17 1022 10 16 N/A
8:58 pm 20:58 Sunny 66 18.8 29 -1.5 25 25 S 12 19 30.14 1021 10 16 N/A
9:58 pm 21:58 Sunny 67 19.2 30 -1.2 25 25 S 13 20 30.13 1020 10 16 N/A
10:58 pm 22:58 Sunny 66 18.8 28 -2 24 24 SSE 18 30 30.11 1020 10 16 N/A
11:58 pm 23:58 Sunny 66 18.7 31 -0.8 27 27 SSE 17 28 30.09 1019 10 16 N/A

Powered by AerisWeather